カタログに戻る

HULIANWANG DIGUI-24

運用中通信PO
NORAD 63691·PAYLOAD·🇨🇳 China

打ち上げ Apr 28, 2025 から Wenchang Space Launch Site

Loading…

次のパス (今後24時間)

TLE

最新Source: Space-Track

元期: Sep 14, 2026, 14:05 UTC

1 63691U 25086E   26257.58716279  .00000022  00000-0  17367-4 0  9995
2 63691  86.5033 283.1898 0002040  80.5087 279.6277 13.24414158 66695

AllMySatでHULIANWANG DIGUI-24をリアルタイム追跡

Download on the App Store